Location: Igri�s
(42.2144°N, 0.4320°W)
Time: 18:17:10
(UTC+00:00)

SPOT 3 Rocket - Pass Details

Date: 13 August 2020
Orbit: 778 x 795 km, 98.8° (Epoch: 17 September)

Event Time Altitude Azimuth Distance (km) Brightness Sun altitude
Exits shadow 20:01:48 - 153° (SSE) 2,499 5.6 -10.4°
Reaches altitude 10° 20:02:11 10° 152° (SSE) 2,352 5.5 -10.4°
Maximum altitude 20:07:18 63° 72° (ENE) 883 3.6 -11.2°
Drops below altitude 10° 20:12:26 10° 353° (N) 2,358 6.6 -12.0°
Sets 20:14:47 0° 350° (N) 3,289 7.5 -12.4°
